星链-6085 (STARLINK-6085 )

导读 | 星芒AI

STARLINK-6085 是 SpaceX Starlink 项目中的一颗低轨通信卫星,属于第 22 批组网发射的“星链”卫星之一。该卫星部署在约 550 公里的近地轨道,主要用于提供全球宽带互联网服务,尤其服务于网络基础设施薄弱的地区。它采用先进的通信技术,支持高速、低延迟的数据传输,为 Starlink 网络的全球覆盖和性能优化发挥关键作用。

基本信息
目录编号:
57115
目录名称:
STARLINK-6085
国际标识:
2023-090Q
轨道中心:
EARTH
卫星名称:
星链-6085
卫星全名:
星链-6085 (STARLINK-6085 )
卫星状态:
在轨 (已飞行912 天)
发射日期:
2023-06-23 UTC
国别 :
美国 (US)
星等 :
--
轨道信息
数据来源 国际轨道数据
星历时间: 2025-12-21T16:27:04+0800
9小时前
查看轨道信息
半长轴: 6915.406km
偏心率: 0.0012034
轨道倾角: 43.001°
近地点辐角 59.531°
升交点赤经 334.874°
平近点角 300.673°
近地点: 528.947km
远地点: 545.591km
周期: 95.386分钟
每日圈数: 15.096499
详细信息
固有亮度:
5
最大亮度:
2.4
卫星平台:
Starlink v1.5
覆盖范围:
全球
运营商:
太空探索技术公司
运营商所在国:
美国
制造商(研发单位):
太空探索技术公司
制造商所在国:
美国
使用方式:
暂无
卫星简介
星链(Starlink)计划是由太空探索技术公司(SpaceX)提出的一个巨型低轨卫星互联网星座项目,计划在2019年至2024年间在太空搭建由约1.2万颗卫星组成的“星链”网络,其中1584颗将部署在地球上空550千米处的近地轨道,并从2020年开始工作。该卫星仍在工作。
2D轨道图
3D轨道图
轨道高度分析图
轨道倾角分析图
轨道综合分析图
查看轨道综合分析图